Simultaneous Nadir Overpasses (SNOs) Predictions

Prediction of SNOs between GOES-16 and FY3D Satellite Orbit:

Table of predicted SNOs for the next 14.0 days since TLE Epoch: 2/24/2024
Index Date Time (GOES-16) GOES-16 Lat,Lon FY3D Lat,Lon Distance(km) Time Diff (sec)
1 02/24/2024 19:22:38 0.06, -75.21 0.06, -75.29 9.43 80
2 02/27/2024 07:29:00 -0.06, -75.23 0.15, -76.14 103.51 80
3 02/28/2024 07:07:51 -0.06, -75.24 -0.85, -71.65 408.46 80
4 02/29/2024 19:30:10 0.06, -75.25 -0.33, -77.02 201.79 80
5 03/01/2024 19:14:21 0.06, -75.26 0.68, -72.54 310.54 80
6 03/03/2024 07:36:32 -0.05, -75.28 0.52, -77.87 294.75 80
7 03/04/2024 07:15:22 -0.05, -75.29 -0.49, -73.39 217.48 80
8 03/05/2024 19:37:41 0.04, -75.30 -0.74, -78.74 392.64 80
9 03/06/2024 19:21:51 0.04, -75.31 0.28, -74.26 120.04 80
10 03/08/2024 07:44:03 -0.02, -75.34 0.91, -79.59 484.15 80
